Temperature
16 16 16 16 16 16 16 16 16 16 16 16 16 16 16 16 15 15 15 15 15 15 15 15 15 15 15 15 15 15 14 14 14 14 14 14 14 14 14 14 14 14 14
16 16 16 16 16 16 16 16 16 16 16 16 16 15 15 15 15 15 15 15 15 15 15 15 15 15 15 15 14 14 14 14 14 14 14 14 14 13 13 13 13 13 13
16 16 16 16 16 16 16 16 16 16 16 16 15 15 15 15 15 15 15 15 15 15 15 15 15 15 15 14 14 14 14 14 14 14 14 14 13 13 13 13 13 13 13
16 16 16 16 16 16 16 16 16 16 16 15 15 15 15 15 15 15 15 15 15 15 15 15 15 15 14 14 14 14 14 14 14 14 14 13 13 13 13 13 13 13 13
16 16 15 15 15 15 15 15 15 15 15 15 15 15 15 15 15 15 14 14 15 15 15 15 14 14 14 14 14 14 13 13 13 13 13 13 13 13 13 13 12 12 12
15 15 15 15 15 15 15 15 15 15 15 15 15 15 15 15 15 14 14 14 14 15 15 14 14 14 14 14 13 13 13 13 13 13 13 13 13 13 12 12 12 12 12
15 15 15 15 15 15 15 15 15 15 15 15 14 15 15 15 15 14 14 14 14 14 14 14 14 14 14 13 13 13 13 13 13 13 13 13 13 12 12 12 12 12 12
15 15 15 15 15 14 14 15 15 15 14 14 14 14 14 14 14 14 14 14 14 14 14 14 14 14 13 13 13 13 13 13 12 13 13 12 12 12 12 12 12 12 12
14 14 14 14 14 14 14 14 14 14 14 14 14 14 14 14 14 14 14 14 14 14 14 14 14 13 13 13 13 13 12 12 12 12 12 12 12 12 12 12 12 12 11
14 14 14 14 14 14 14 14 14 14 14 14 14 14 14 14 14 14 14 14 14 14 14 14 13 13 13 13 13 12 12 12 12 12 12 12 12 12 12 11 11 11 11
13 13 13 13 13 13 13 13 13 14 14 13 13 14 14 14 14 14 14 13 13 13 13 13 13 13 13 13 12 12 12 12 12 12 12 12 11 11 11 11 11 11 11
13 13 13 13 13 13 13 13 13 13 13 13 13 13 13 13 13 13 13 13 13 13 13 13 13 13 13 12 12 12 12 12 12 12 11 11 11 11 11 11 11 10 10
13 13 13 13 13 13 13 13 13 13 13 13 13 13 13 13 13 13 13 13 13 13 13 12 12 12 12 12 12 12 12 11 11 11 11 11 11 11 11 10 10 10 10
12 12 12 12 12 12 12 12 12 12 12 12 12 12 13 13 13 13 13 13 13 13 12 12 12 12 12 12 12 12 11 11 11 11 11 11 11 11 11 10 10 10 10
12 12 12 12 12 12 12 12 12 12 12 12 12 12 12 12 12 12 12 12 12 12 12 12 12 12 12 12 11 11 11 11 11 11 11 11 11 11 10 10 10 10 10
11 11 12 12 12 12 12 12 12 12 12 12 12 12 12 12 12 12 12 12 12 12 12 12 12 11 11 11 11 11 11 11 11 11 11 11 11 10 10 10 10 10 9
11 11 11 11 11 11 11 11 11 11 11 11 11 11 11 11 12 12 12 12 12 11 11 11 11 11 11 11 11 11 11 10 10 10 10 10 10 10 10 10 10 10 9
11 11 11 11 11 11 11 11 11 11 11 11 11 11 11 11 11 11 11 11 11 11 11 11 11 11 11 10 10 10 10 10 10 10 10 10 10 10 10 10 10 9 9
10 10 10 10 10 10 10 10 10 11 11 11 10 10 10 10 10 11 11 11 11 11 10 10 10 10 10 10 10 10 10 10 10 9 9 9 9 9 9 9 9 9 9
10 10 10 10 10 10 10 10 10 10 10 10 10 10 10 10 10 10 10 10 10 10 10 10 10 10 10 10 10 10 9 9 9 9 9 9 9 9 9 9 9 9 9
9 9 9 9 10 10 9 9 9 9 10 9 9 10 10 10 10 10 10 10 10 10 10 10 10 10 9 9 9 9 9 9 9 9 9 8 8 8 8 8 8 8 8
9 9 9 9 9 9 9 9 9 9 9 9 9 9 9 9 9 9 9 9 9 9 9 9 9 9 9 9 9 8 8 8 8 8 8 8 8 8 8 8 8 8 8
9 9 9 9 9 9 9 9 9 9 9 9 9 9 9 9 9 9 9 9 9 9 9 9 9 9 9 8 8 8 8 7 7 7 7 7 7 7 7 7 7 7 7
8 8 8 8 8 8 8 8 9 8 8 9 8 8 8 8 8 8 8 9 9 9 9 8 8 8 8 8 8 8 8 8 7 6 6 7 7 6 6 6 6 7 7
8 8 8 8 8 8 8 8 8 8 8 8 8 8 8 8 8 8 8 8 8 8 8 8 8 8 8 8 8 8 7 7 7 7 6 6 6 6 6 6 6 6 6
7 7 7 8 8 8 8 8 8 8 7 7 7 7 7 7 7 7 8 8 8 8 8 8 7 8 7 7 7 7 7 7 7 7 7 6 6 6 6 6 6 6 6
Wind_Speed
3 5 11 11 12 12 12 12 12 12 12 12 12 12 12 12 12 12 12 11 11 12 13 13 14 14 14 14 14 14 14 14 14 14 14 14 14 14 15 14 13 12 14
5 8 11 12 12 12 12 12 11 12 12 11 11 11 11 11 12 12 12 11 11 11 12 13 13 13 13 13 13 13 13 14 13 13 13 13 13 14 14 13 13 12 14
7 9 10 11 11 12 12 11 11 11 11 11 11 11 11 11 11 11 11 11 11 11 12 12 12 13 13 12 12 12 12 13 13 13 12 11 10 13 14 13 13 14 14
9 9 10 11 11 11 11 11 10 10 10 10 10 10 10 10 10 10 10 11 11 12 12 12 12 11 12 11 11 11 12 12 12 11 10 9 9 11 12 13 13 13 13
8 9 10 11 10 10 11 10 10 10 10 9 9 10 10 10 10 10 10 11 11 12 11 11 11 10 10 10 10 11 11 11 12 11 10 9 8 10 11 11 12 12 12
6 8 10 11 10 9 10 10 10 9 9 9 9 9 9 10 10 10 10 11 11 11 11 10 10 9 9 9 10 10 11 12 11 10 9 9 8 9 10 11 11 11 11
6 8 10 10 10 9 9 9 9 9 8 9 9 8 9 9 10 10 10 10 10 11 10 10 9 9 9 9 9 10 10 11 10 9 8 7 7 9 9 10 10 9 10
6 7 9 10 10 9 9 8 8 8 8 8 8 8 8 8 9 10 10 10 10 10 10 10 9 9 9 8 8 8 9 9 8 7 6 6 8 9 9 9 9 8 9
6 6 6 7 8 8 8 8 7 7 8 8 8 7 7 8 8 9 10 9 10 10 10 9 9 8 8 8 8 8 8 8 8 6 5 5 7 8 8 8 8 7 7
5 4 4 5 5 6 6 7 7 6 7 7 7 7 7 8 8 8 9 9 9 10 9 9 8 8 7 7 7 8 8 7 7 6 5 5 6 7 7 7 7 7 7
4 3 3 3 4 4 5 6 6 6 6 7 7 7 7 6 7 7 8 9 9 9 9 9 8 8 7 6 6 7 7 6 6 4 4 5 6 6 6 6 6 6 6
3 2 2 2 3 3 4 4 5 5 4 5 5 6 5 6 6 6 8 9 9 8 8 8 7 6 5 4 5 6 6 6 5 4 4 5 5 5 5 5 5 5 5
4 3 2 2 3 3 3 3 3 4 4 4 5 5 5 5 5 5 5 6 7 7 6 6 5 4 3 3 4 5 5 5 5 3 3 4 5 4 4 4 4 4 4
3 2 2 1 2 2 3 3 3 3 2 2 3 5 4 3 3 3 4 4 4 5 4 4 4 4 3 3 3 4 5 5 5 4 3 4 4 3 4 4 3 3 3
3 2 2 2 2 2 2 2 3 2 2 3 3 4 5 3 3 3 3 3 4 4 4 4 4 3 3 3 3 4 4 4 4 4 3 3 3 3 3 3 2 3 3
4 4 3 3 2 2 2 2 2 2 3 3 3 4 5 4 4 3 3 3 3 4 5 5 4 3 3 3 3 3 4 5 4 4 3 3 3 3 2 2 2 2 2
5 4 3 3 2 2 2 2 2 2 3 2 3 4 5 5 4 3 3 3 3 4 5 4 4 4 3 3 2 3 3 4 4 4 3 3 3 2 2 2 2 1 2
3 4 4 2 3 2 2 2 1 1 2 2 3 4 4 5 5 4 3 2 4 4 4 3 3 3 2 2 2 1 2 3 3 3 3 3 2 2 2 2 2 2 2
3 4 3 3 3 2 2 2 2 1 1 1 2 3 4 4 5 4 3 3 4 4 3 3 2 3 3 2 1 1 1 1 1 2 2 3 2 2 2 2 2 2 3
2 3 3 3 3 2 2 2 1 1 1 1 1 3 5 5 5 4 3 3 4 3 2 2 3 2 3 2 2 2 1 1 1 1 1 2 2 2 2 2 2 2 3
2 2 3 3 3 3 2 3 2 2 2 1 0 2 4 5 5 4 3 3 3 3 3 3 3 4 2 2 2 2 2 2 1 0 1 1 2 2 2 2 2 2 2
2 2 3 3 4 4 3 3 3 3 2 2 1 1 3 4 5 5 5 4 4 3 3 3 3 3 2 2 3 2 0 2 2 1 0 0 0 2 2 2 2 3 3
3 3 3 3 4 3 3 2 2 2 1 0 1 2 1 3 4 4 4 4 4 4 4 4 4 3 4 3 2 3 3 3 1 1 1 0 0 0 1 1 2 2 2
4 3 3 3 3 3 3 4 5 4 3 2 2 2 1 2 3 4 4 4 4 4 4 4 3 2 4 4 2 1 2 3 2 1 1 1 1 1 1 1 1 1 2
3 2 2 2 2 3 3 5 5 3 2 1 1 2 2 1 2 3 4 4 4 3 3 3 3 2 2 3 3 2 1 1 1 2 2 2 2 2 1 1 1 1 1
0 0 1 2 2 2 3 4 5 5 3 3 3 3 2 1 1 2 4 4 4 3 3 3 3 3 2 2 2 3 3 2 3 2 3 3 3 2 2 1 1 1 0
Wind_Direction
184 164 153 144 136 131 126 126 123 121 118 114 112 109 108 108 107 106 106 105 102 99 97 94 91 90 90 87 84 81 80 78 76 77 76 77 77 79 78 72 69 71 78
156 155 148 143 137 134 129 124 123 124 122 119 117 115 113 113 111 109 108 106 104 102 99 96 95 93 93 91 87 84 83 82 78 78 76 75 77 79 79 77 73 77 78
132 140 142 143 138 135 131 127 124 124 125 124 123 122 119 115 115 115 112 108 105 104 100 96 95 95 95 92 88 87 89 86 81 80 74 69 75 81 80 79 77 76 76
132 135 139 139 138 136 133 130 129 127 125 128 129 127 126 122 119 118 117 113 110 106 103 100 98 97 97 95 91 91 92 89 84 78 69 64 72 83 83 81 78 75 74
128 136 142 140 136 137 136 134 131 130 129 127 130 132 131 129 123 121 119 115 113 110 107 105 102 101 100 95 93 96 94 92 88 77 71 67 72 87 86 84 81 77 74
127 135 143 144 141 137 139 137 136 135 133 133 130 134 136 134 129 125 120 117 115 114 114 111 108 105 100 95 94 98 98 96 87 80 76 71 76 90 89 87 85 81 77
131 135 145 148 146 140 138 141 140 140 138 135 134 132 137 138 135 129 124 121 121 120 118 115 112 107 101 94 93 97 99 99 91 89 84 80 85 92 91 88 87 85 83
133 129 143 152 149 147 143 143 144 142 141 140 137 137 135 137 141 136 130 127 127 125 121 117 113 109 103 97 97 97 104 102 95 92 91 90 91 94 93 90 88 87 86
117 118 125 144 149 151 148 146 150 148 143 140 139 139 137 136 139 143 140 137 134 131 126 123 121 115 107 100 96 95 101 104 99 94 93 95 94 93 94 93 88 86 87
92 101 110 125 136 141 149 148 144 148 149 144 141 137 134 138 138 143 146 143 139 136 132 130 127 119 108 102 97 90 97 98 97 94 93 105 100 93 92 92 89 86 87
94 82 90 102 110 129 143 148 142 140 143 141 139 133 129 128 131 135 145 145 141 140 136 134 129 122 110 99 91 87 94 101 101 92 100 114 106 99 96 96 97 92 90
139 128 97 104 106 114 130 130 128 129 128 132 135 134 132 129 133 135 140 145 142 137 135 132 129 123 108 94 85 84 92 99 98 91 113 122 111 104 101 99 99 100 94
173 152 138 110 110 113 106 112 107 112 115 124 134 132 131 127 126 131 132 142 143 136 127 123 118 110 107 102 91 88 96 103 99 89 101 115 112 111 106 103 98 98 94
167 170 158 113 122 114 113 117 116 112 116 127 145 140 135 130 132 140 144 147 144 140 126 117 116 112 105 105 103 94 94 109 106 97 93 96 98 110 108 101 99 99 98
177 187 184 147 148 137 120 132 134 135 140 149 151 150 148 143 150 147 148 152 144 144 140 133 129 120 113 106 97 98 101 109 108 100 92 86 87 93 98 103 99 96 96
192 194 187 165 152 141 133 141 157 151 146 151 158 159 154 148 146 147 146 150 152 156 156 148 140 128 124 111 99 97 102 109 108 101 88 82 76 71 75 95 92 83 81
196 186 176 178 151 156 155 155 139 144 148 153 167 165 156 148 143 138 145 150 155 153 146 135 124 114 112 104 99 93 98 106 108 106 102 90 73 58 55 60 63 66 55
182 181 184 176 158 159 157 155 139 127 134 153 169 165 158 154 148 137 143 157 154 147 133 141 134 126 114 109 100 87 82 97 101 106 111 110 95 70 52 52 38 29 26
188 182 180 172 164 168 167 148 129 118 120 145 165 163 160 157 153 140 144 147 148 140 138 151 143 139 134 117 108 87 71 84 80 94 100 110 112 109 83 41 34 29 23
187 180 175 171 167 161 151 122 95 112 93 78 152 166 155 158 152 141 140 144 138 144 145 143 150 136 139 137 106 62 27 21 60 84 98 98 98 101 102 81 63 33 12
181 182 185 172 170 160 166 162 181 202 196 184 214 168 154 155 153 146 144 149 145 155 163 150 150 143 145 134 102 50 12 10 8 22 66 77 66 75 89 86 76 50 18
193 202 202 191 182 186 191 187 186 180 188 184 184 169 156 156 158 159 157 162 158 152 154 157 147 161 173 171 140 127 65 340 337 328 288 128 45 66 63 66 74 68 55
211 210 214 204 191 192 188 158 127 109 92 112 213 193 171 161 158 163 165 160 159 163 175 182 178 174 184 201 175 154 166 211 256 313 299 288 238 352 11 64 62 68 57
223 215 211 205 190 188 174 169 169 174 186 212 206 199 182 167 164 163 158 159 162 166 176 186 192 181 176 192 207 200 182 164 175 221 287 284 254 236 248 284 90 84 65
216 208 206 189 184 189 182 178 175 177 183 173 173 174 178 184 172 168 161 161 165 170 180 186 182 176 181 194 196 188 167 148 177 183 229 255 279 258 242 213 165 114 83
251 159 152 170 194 198 185 184 181 178 174 166 182 180 183 196 185 175 165 164 168 172 182 189 185 175 187 184 198 191 186 189 196 189 213 226 244 260 248 215 207 196 196
Height
1523 1525 1526 1527 1529 1530 1530 1531 1532 1533 1533 1534 1534 1535 1535 1535 1536 1536 1536 1536 1537 1537 1537 1537 1537 1537 1537 1537 1537 1537 1536 1536 1536 1536 1536 1535 1535 1535 1534 1533 1533 1532 1532
1523 1524 1526 1527 1528 1529 1530 1531 1532 1533 1533 1534 1534 1535 1535 1536 1536 1536 1537 1537 1537 1537 1538 1538 1538 1538 1538 1538 1538 1538 1537 1537 1537 1537 1537 1536 1536 1536 1535 1535 1534 1534 1534
1522 1524 1526 1527 1528 1529 1530 1531 1532 1532 1533 1534 1534 1535 1535 1536 1536 1537 1537 1537 1538 1538 1538 1538 1538 1538 1538 1538 1538 1538 1538 1538 1538 1538 1538 1537 1537 1537 1537 1536 1536 1535 1535
1522 1524 1525 1527 1528 1529 1529 1530 1531 1532 1533 1533 1534 1535 1535 1536 1536 1537 1537 1537 1538 1538 1538 1539 1539 1539 1539 1539 1539 1539 1539 1539 1539 1539 1539 1538 1538 1538 1538 1538 1537 1537 1536
1522 1523 1525 1526 1527 1528 1529 1530 1530 1531 1532 1533 1534 1534 1535 1536 1536 1537 1537 1538 1538 1538 1538 1539 1539 1539 1539 1539 1539 1540 1540 1540 1540 1540 1539 1539 1539 1539 1539 1539 1538 1538 1538
1521 1523 1524 1525 1527 1528 1528 1529 1530 1531 1531 1532 1533 1534 1535 1535 1536 1536 1537 1538 1538 1538 1538 1539 1539 1540 1540 1540 1540 1540 1540 1540 1540 1540 1540 1540 1540 1540 1540 1539 1539 1539 1538
1520 1522 1523 1525 1526 1527 1528 1528 1529 1530 1531 1531 1532 1533 1534 1535 1535 1536 1537 1537 1538 1538 1538 1539 1539 1539 1540 1540 1540 1540 1540 1541 1541 1541 1541 1541 1541 1541 1540 1540 1540 1539 1539
1520 1521 1522 1524 1525 1526 1527 1527 1528 1529 1530 1530 1531 1532 1533 1534 1534 1535 1536 1537 1537 1537 1538 1538 1539 1539 1539 1540 1540 1540 1540 1541 1541 1541 1541 1541 1541 1541 1541 1540 1540 1540 1539
1519 1520 1521 1522 1524 1525 1525 1526 1527 1528 1529 1529 1530 1531 1532 1533 1533 1534 1535 1536 1536 1537 1537 1538 1538 1539 1539 1539 1540 1540 1540 1541 1541 1541 1542 1542 1542 1542 1541 1541 1541 1540 1540
1517 1519 1520 1521 1522 1523 1524 1525 1526 1526 1527 1528 1529 1530 1531 1531 1532 1533 1534 1535 1535 1536 1536 1537 1537 1538 1538 1539 1539 1540 1540 1541 1541 1541 1541 1542 1542 1542 1541 1541 1541 1540 1540
1516 1517 1518 1519 1520 1521 1522 1523 1524 1525 1526 1527 1527 1528 1529 1530 1531 1532 1533 1534 1534 1535 1535 1536 1537 1537 1538 1538 1539 1539 1540 1540 1541 1541 1541 1541 1541 1541 1541 1541 1541 1540 1540
1513 1515 1516 1517 1518 1519 1520 1521 1522 1523 1524 1524 1525 1526 1527 1528 1529 1530 1531 1532 1533 1534 1534 1535 1536 1536 1537 1538 1538 1539 1539 1540 1540 1540 1540 1540 1541 1540 1540 1540 1540 1540 1540
1511 1513 1514 1515 1516 1517 1518 1518 1519 1520 1521 1522 1523 1524 1525 1526 1527 1528 1529 1530 1531 1532 1533 1533 1534 1535 1536 1537 1537 1538 1538 1539 1539 1539 1539 1540 1540 1539 1539 1539 1539 1539 1539
1510 1510 1512 1513 1514 1514 1515 1516 1517 1518 1519 1520 1521 1522 1523 1524 1524 1525 1527 1528 1529 1530 1531 1532 1533 1534 1535 1536 1536 1537 1537 1538 1538 1538 1538 1539 1538 1538 1538 1538 1538 1538 1538
1507 1508 1509 1510 1511 1512 1513 1514 1514 1515 1516 1517 1518 1519 1520 1521 1522 1523 1524 1526 1527 1528 1529 1530 1531 1533 1534 1535 1536 1536 1536 1537 1537 1537 1537 1537 1537 1537 1537 1537 1537 1537 1537
1505 1506 1507 1507 1509 1509 1510 1511 1512 1513 1514 1515 1516 1517 1518 1519 1520 1521 1522 1523 1525 1526 1527 1528 1530 1531 1532 1533 1534 1535 1535 1535 1536 1536 1536 1536 1536 1536 1536 1536 1536 1535 1535
1502 1503 1504 1505 1506 1507 1508 1508 1509 1510 1511 1512 1513 1514 1515 1517 1518 1519 1520 1521 1522 1524 1525 1526 1528 1529 1530 1532 1533 1533 1534 1534 1535 1535 1535 1535 1535 1535 1535 1534 1534 1534 1534
1500 1501 1501 1502 1503 1504 1505 1506 1507 1508 1508 1509 1511 1512 1513 1514 1516 1517 1518 1519 1520 1522 1523 1524 1525 1527 1528 1530 1531 1532 1532 1533 1533 1533 1534 1534 1534 1533 1533 1533 1533 1532 1532
1498 1498 1499 1499 1500 1501 1502 1503 1504 1505 1506 1507 1508 1508 1510 1511 1513 1514 1516 1517 1518 1519 1521 1522 1524 1525 1526 1528 1529 1529 1530 1531 1531 1531 1532 1532 1532 1532 1531 1531 1531 1530 1530
1495 1496 1496 1497 1497 1498 1499 1500 1501 1503 1504 1505 1505 1505 1507 1509 1510 1512 1513 1515 1516 1517 1518 1520 1521 1523 1524 1525 1526 1527 1528 1529 1529 1529 1529 1530 1529 1529 1529 1529 1528 1528 1528
1492 1492 1493 1493 1494 1495 1496 1497 1498 1499 1500 1501 1502 1503 1504 1506 1507 1509 1510 1512 1513 1514 1515 1517 1518 1520 1521 1523 1524 1524 1525 1526 1527 1527 1527 1527 1527 1527 1527 1527 1526 1526 1525
1488 1489 1490 1490 1491 1492 1493 1494 1495 1496 1497 1498 1499 1500 1502 1503 1504 1506 1507 1509 1510 1512 1513 1514 1515 1516 1518 1519 1520 1521 1522 1524 1523 1524 1524 1524 1524 1525 1525 1524 1524 1523 1523
1484 1485 1486 1487 1488 1489 1490 1491 1492 1493 1494 1495 1496 1496 1498 1500 1501 1503 1505 1506 1507 1509 1510 1511 1512 1513 1514 1516 1517 1519 1519 1519 1519 1520 1521 1521 1522 1522 1522 1522 1521 1520 1520
1480 1481 1483 1484 1485 1485 1486 1488 1489 1490 1490 1491 1493 1494 1495 1496 1498 1500 1501 1503 1504 1506 1507 1508 1509 1510 1511 1512 1514 1515 1516 1516 1517 1516 1518 1518 1518 1518 1519 1519 1518 1518 1517
1477 1478 1479 1481 1482 1483 1483 1485 1486 1487 1488 1489 1490 1491 1492 1493 1495 1497 1499 1500 1501 1503 1504 1505 1506 1507 1508 1509 1510 1511 1512 1513 1513 1513 1513 1514 1515 1515 1515 1515 1515 1515 1514
1474 1475 1476 1478 1479 1480 1480 1482 1483 1484 1485 1486 1487 1488 1490 1491 1492 1494 1495 1497 1498 1500 1501 1502 1503 1504 1505 1506 1506 1507 1508 1509 1510 1510 1509 1509 1510 1511 1511 1511 1511 1512 1511